Regional Weather Roundup
Issued by NWS Sioux Falls, SD

Home | Current Version | Previous Version | Text Only | Print | Product List | Glossary Off
Versions: 1 2 3 4 5 6 7 8 9 10 11 12 13 14 15 16 17 18 19 20 21 22 23 24 25 26 27 28 29 30 31 32 33 34 35 36 37 38 39 40 41 42 43 44 45 46 47 48 49 50

408
ASUS43 KFSD 240110
RWRFSD

WEATHER ROUNDUP FOR SE SOUTH DAKOTA/SW MINNESOTA/NW IOWA
NATIONAL WEATHER SERVICE SIOUX FALLS SD
700 PM CST MON JAN 23 2017

NOTE: "FAIR" INDICATES FEW OR NO CLOUDS BELOW 12,000 FEET WITH NO
SIGNIFICANT WEATHER AND OR OBSTRUCTIONS TO VISIBILITY.


SDZ038>040-050-052>070-240200-
SOUTHEAST SOUTH DAKOTA

CITY           SKY/WX    TMP DP  RH WIND       PRES   REMARKS
BROOKINGS      CLOUDY    30  27  88 E6        29.80S WCI  24
CHAMBERLAIN    CLOUDY    32  30  92 E15G21    29.73R WCI  22
HURON          CLOUDY    31  29  92 E6        29.79R WCI  25
MADISON        CLOUDY    28  28 100 E8          N/A  WCI  20
MITCHELL       CLOUDY    32  29  88 SE12      29.80R WCI  23
SIOUX FALLS    CLOUDY    31  29  92 E6        29.81S WCI  25
WINNER         CLOUDY    32  27  81 SE15      29.69S WCI  22
YANKTON        CLOUDY    30  27  86 E8        29.79R WCI  23
$$

MNZ071-072-080-081-089-090-097-098-240200-
SOUTHWEST MINNESOTA

CITY           SKY/WX    TMP DP  RH WIND       PRES   REMARKS
FAIRMONT       CLOUDY    30  30 100 CALM      29.84S
JACKSON        CLOUDY    30  28  93 CALM      29.83R
LUVERNE        CLOUDY    30  27  86 SE3       29.82R
MARSHALL       CLOUDY    31  28  89 CALM      29.84S
MONTEVIDEO     CLOUDY    32  32 100 CALM      29.86R
PIPESTONE      CLOUDY    30  28  93 CALM      29.80R
REDWOOD FALLS  CLOUDY    33  26  75 CALM      29.84S
TRACY          CLOUDY    32  29  90 NE3       29.83S
WINDOM         CLOUDY    30  28  93 NE3       29.82S
WORTHINGTON    CLOUDY    30  29  96 E3        29.82R
$$

IAZ001>003-012>014-020>022-031-032-NEZ013-014-SDZ071-240200-
NORTHWEST IOWA

CITY           SKY/WX    TMP DP  RH WIND       PRES   REMARKS
CHEROKEE       CLOUDY    32  31  96 SE3       29.83S
DENISON        CLOUDY    32  30  93 E7        29.80S WCI  26
ESTHERVILLE    CLOUDY    31  29  92 CALM      29.82R
LE MARS        CLOUDY    32  28  86 SE6       29.83S WCI  26
ORANGE CITY    CLOUDY    30  30 100 SE3       29.81S
SHELDON        CLOUDY    32  32 100 SE5       29.81S WCI  27
SIOUX CITY     CLOUDY    34  29  82 E8        29.82R WCI  27
SPENCER        CLOUDY    32  29  88 CALM      29.83R
STORM LAKE     CLOUDY    32  30  93 E6        29.81F WCI  26
$$

ABBREVIATIONS USED IN REMARKS
   TC - TEMPERATURE IN CELSIUS
  WCI - WIND CHILL INDEX
   HX - HEAT INDEX
  VSB - VISIBILITY





USA.gov is the U.S. government's official web portal to all federal, state and local government web resources and services.